[[{"header":{"parameterUnit":"m.s-1","parameterCategory":1,"la1":30.2991,"la2":30.254,"lo1":-89.0895,"lo2":-89.0444,"dy":0.0017,"dx":0.0017,"nx":28,"ny":28,"refTime":"2024-04-23T21:00:00:Z","depth":0,"parameterNumber":2,"parameterNumberName":"U-component_of_WINDS"},"data":[0,0,0,0,0,0,0,0,0,0,0,0,0,0,0,0,0,0,0,0,0,0,0,0,0,0,0,0,0,0,0,0,0,0,0,0,0,0,0,0,0,0,0,0,0,0,0,0,0,0,0,0,0,0,0,0,0,0,0.4334,0.4334,0,0.4289,0.4289,0.4288,0.4247,0.4246,0.4246,0.4245,0.4198,0.4197,0.4196,0,0,0,0,0,0,0,0,0,0,0,0,0,0.4384,0.4383,0.4335,0.4334,0.4333,0.4289,0.4289,0.4288,0.4247,0.4246,0.4246,0.4245,0.4198,0.4197,0.4196,0,0,0,0,0,0,0,0,0,0,0,0,0,0.4353,0.4383,0.4335,0.4308,0.4305,0.4289,0.4289,0.4288,0.4247,0.4246,0.4246,0.4245,0.4199,0.4197,0.4196,0.4204,0,0,0.4193,0.4192,0,0,0,0,0,0,0,0,0.4355,0.4351,0.4312,0.4309,0.4306,0.4273,0.4289,0.426,0.4247,0.4269,0.4245,0.4245,0.4224,0.422,0.4213,0.4201,0.4199,0.4193,0.4192,0.4191,0.4191,0,0,0,0,0,0,0,0.4357,0.4353,0.4316,0.4312,0.4308,0.4297,0.4292,0.4283,0.4251,0.4267,0.4264,0.4259,0.4222,0.4215,0.4212,0.4199,0.4193,0.4191,0.4191,0.419,0.4188,0.4189,0,0,0,0,0,0,0.4364,0.4355,0.4318,0.4315,0.4329,0.4297,0.4291,0.4284,0.4251,0.4245,0.426,0.4257,0.4217,0.4213,0.421,0.4215,0.4191,0.419,0.4189,0.4188,0.4188,0.4189,0,0,0,0,0,0,0.4365,0.4361,0.432,0.4334,0.4328,0.4297,0.429,0.4284,0.4277,0.4245,0.4239,0.4258,0.4216,0.4212,0.4205,0.4212,0.419,0.4189,0.4187,0.4188,0.4189,0.4225,0,0,0,0,0,0,0.4366,0.4361,0.4364,0.4335,0.4328,0.4316,0.429,0.4283,0.4275,0.4271,0.4243,0.4237,0.4215,0.4207,0.4204,0.421,0.4188,0.4186,0.4187,0.4188,0.4223,0.4227,0.4231,0,0,0,0,0,0.4368,0.4377,0.4365,0.436,0.4331,0.4317,0.4313,0.4288,0.4276,0.4278,0.4257,0.4238,0.4213,0.4207,0.4203,0.4209,0.4185,0.4187,0.4188,0.4221,0.4226,0.4231,0,0,0,0,0,0,0.4408,0.4372,0.4359,0.4358,0.4341,0.431,0.4312,0.4294,0.428,0.4277,0.4246,0.424,0.4237,0.4222,0.4217,0.4213,0.4196,0.4197,0.4223,0.4227,0.4231,0.4234,0.4187,0,0,0,0,0,0.4417,0.4409,0.4378,0.438,0.4372,0.4344,0.4337,0.4319,0.43,0.4292,0.4272,0.4253,0.4241,0.4233,0.4221,0.4221,0.4213,0.4223,0.4227,0.4231,0.4231,0.4228,0.4232,0.4194,0.4194,0.4194,0,0,0.4434,0.4414,0.4411,0.4387,0.4372,0.4363,0.4338,0.433,0.4323,0.4291,0.4283,0.4267,0.4245,0.4241,0.4239,0.4229,0.424,0.4232,0.4235,0.4234,0.423,0.4234,0.4237,0.4195,0.4195,0.4195,0,0,0.4462,0.4446,0.4445,0.443,0.4407,0.4388,0.4388,0.436,0.4348,0.434,0.4314,0.4306,0.4286,0.427,0.426,0.428,0.4261,0.4277,0.4297,0.4294,0.4297,0.43,0.4305,0.4308,0.4278,0.4278,0.4278,0,0.4486,0.4473,0.4447,0.4441,0.443,0.4401,0.4399,0.4386,0.436,0.4353,0.4343,0.4316,0.4299,0.429,0.4295,0.4288,0.4286,0.428,0.4299,0.4301,0.4303,0.4308,0.431,0.428,0.428,0.428,0.4279,0,0.4503,0.4495,0.4497,0.4472,0.4462,0.4458,0.4431,0.4424,0.4407,0.4389,0.4379,0.4358,0.4339,0.4336,0.432,0.4325,0.4319,0.4305,0.4287,0.4309,0.4313,0.4315,0.4283,0.4282,0.4282,0.4281,0,0,0.4554,0.4515,0.4515,0.4503,0.4475,0.4468,0.4462,0.4444,0.4438,0.4421,0.4414,0.4397,0.4383,0.4371,0.4353,0.4351,0.4366,0.4336,0.4335,0.4341,0.4368,0.4378,0.4381,0.4354,0.4354,0.4354,0.4369,0,0.4575,0.4563,0.4539,0.4535,0.4525,0.4497,0.4491,0.4473,0.4456,0.4445,0.4426,0.4413,0.4397,0.4389,0.4386,0.4365,0.4371,0.4364,0.4346,0.4345,0.4351,0.4383,0.4394,0.4409,0.4371,0.4371,0.4371,0,0.4598,0.4583,0.4577,0.4549,0.4544,0.454,0.452,0.4511,0.4489,0.4476,0.4463,0.4442,0.4433,0.4418,0.4404,0.44,0.4391,0.438,0.438,0.4376,0.4359,0.4378,0.4414,0.4415,0.4374,0.4374,0.4373,0,0.4633,0.4611,0.4604,0.4595,0.4562,0.456,0.4546,0.4524,0.4514,0.4497,0.449,0.4472,0.4462,0.4448,0.4423,0.4414,0.4412,0.4394,0.4399,0.44,0.4399,0.4399,0.4432,0.4396,0.4396,0.4396,0.4396,0,0.4659,0.4656,0.4619,0.4615,0.4611,0.4583,0.4579,0.4563,0.4543,0.4534,0.4509,0.4501,0.4469,0.4457,0.4437,0.4428,0.4424,0.4412,0.4407,0.4414,0.4415,0.4407,0.4404,0.4397,0.4397,0.4397,0.4397,0,0.4696,0.4672,0.4662,0.4632,0.4624,0.4622,0.4596,0.459,0.4571,0.456,0.4556,0.4526,0.4511,0.4485,0.4462,0.4448,0.4442,0.4434,0.4449,0.4446,0.4452,0.4451,0.4478,0.448,0.4446,0.4446,0.4446,0,0.4713,0.471,0.468,0.4672,0.4659,0.4647,0.4637,0.461,0.46,0.4574,0.4571,0.4554,0.4538,0.4515,0.449,0.4472,0.4462,0.4473,0.4459,0.4466,0.446,0.446,0.4459,0.4476,0.4476,0.4477,0.4477,0,0.4745,0.4733,0.4719,0.4701,0.469,0.4674,0.4657,0.4652,0.4621,0.4611,0.4595,0.4583,0.4559,0.4542,0.452,0.4504,0.4485,0.4482,0.4482,0.4488,0.4496,0.449,0.4456,0.4481,0.4481,0.448,0.448,0.448,0.4771,0.4767,0.4744,0.473,0.4714,0.4699,0.4691,0.4671,0.4658,0.4636,0.4621,0.4606,0.4583,0.4551,0.4537,0.4524,0.4515,0.4516,0.4515,0.4515,0.4517,0.45,0.452,0.452,0.452,0.452,0.452,0,0.48,0.4784,0.4771,0.4748,0.4736,0.472,0.47,0.4691,0.4678,0.4659,0.4644,0.4625,0.4607,0.4582,0.4562,0.4556,0.4547,0.4552,0.4551,0.4547,0.4527,0.4528,0.456,0.456,0.456,0.456,0.456,0.456,0.4814,0.4805,0.479,0.4773,0.4757,0.4742,0.4731,0.4717,0.4701,0.4681,0.4666,0.465,0.4627,0.4605,0.4588,0.4581,0.4574,0.4582,0.4572,0.4553,0.4549,0.4545,0.4546,0.4581,0.4581,0.4593,0.4593,0.4593]},{"header":{"parameterUnit":"m.s-1","parameterCategory":1,"la1":30.2991,"la2":30.254,"lo1":-89.0895,"lo2":-89.0444,"dy":0.0017,"dx":0.0017,"nx":28,"ny":28,"refTime":"2024-04-23T21:00:00:Z","depth":0,"parameterNumber":3,"parameterNumberName":"V-component_of_WINDS"},"data":[0,0,0,0,0,0,0,0,0,0,0,0,0,0,0,0,0,0,0,0,0,0,0,0,0,0,0,0,0,0,0,0,0,0,0,0,0,0,0,0,0,0,0,0,0,0,0,0,0,0,0,0,0,0,0,0,0,0,2.0754,2.0754,0,2.0843,2.0844,2.0845,2.0808,2.0805,2.0803,2.0801,2.0891,2.0895,2.0899,0,0,0,0,0,0,0,0,0,0,0,0,0,2.0546,2.055,2.0753,2.0755,2.0756,2.0843,2.0844,2.0845,2.0808,2.0805,2.0803,2.08,2.0889,2.0894,2.09,0,0,0,0,0,0,0,0,0,0,0,0,0,2.0636,2.0551,2.0753,2.0748,2.0748,2.0842,2.0844,2.0845,2.0808,2.0805,2.0802,2.0799,2.0888,2.0894,2.09,2.1005,0,0,2.092,2.0923,0,0,0,0,0,0,0,0,2.0631,2.0643,2.0747,2.0748,2.0749,2.0811,2.0803,2.0899,2.0809,2.0786,2.0801,2.0798,2.0867,2.0875,2.0898,2.1009,2.1013,2.0921,2.0925,2.0928,2.093,0,0,0,0,0,0,0,2.0624,2.0639,2.0789,2.0749,2.075,2.0739,2.0748,2.0821,2.0843,2.0787,2.0785,2.0796,2.0866,2.0892,2.09,2.1014,2.0921,2.0927,2.0931,2.0933,2.1211,2.1214,0,0,0,0,0,0,2.0619,2.0634,2.0786,2.0791,2.0681,2.0745,2.0756,2.0794,2.0842,2.0846,2.0799,2.0794,2.0883,2.0893,2.0903,2.1026,2.0928,2.0934,2.0938,2.1208,2.1212,2.1216,0,0,0,0,0,0,2.0614,2.0633,2.0782,2.0712,2.073,2.0752,2.0796,2.0798,2.0823,2.0851,2.0854,2.0821,2.088,2.0894,2.0979,2.1029,2.0937,2.0943,2.1204,2.1209,2.1214,2.1275,0,0,0,0,0,0,2.0609,2.0631,2.0673,2.0714,2.0734,2.0858,2.0799,2.0802,2.0835,2.083,2.0873,2.0877,2.0879,2.097,2.0986,2.1036,2.0948,2.1199,2.1206,2.1212,2.1269,2.1281,2.1293,0,0,0,0,0,2.0601,2.0687,2.0675,2.0693,2.0787,2.0861,2.0873,2.0875,2.0839,2.088,2.0897,2.0875,2.1021,2.0979,2.0997,2.105,2.1196,2.1204,2.1212,2.1263,2.1279,2.1292,0,0,0,0,0,0,2.0651,2.0692,2.0679,2.0781,2.0818,2.0855,2.0907,2.0892,2.0939,2.0932,2.0931,2.0941,2.1029,2.1048,2.1,2.1151,2.1103,2.1115,2.1136,2.1151,2.1163,2.1156,2.0953,0,0,0,0,0,2.0674,2.0732,2.0764,2.0851,2.087,2.0885,2.0918,2.0915,2.0953,2.0969,2.0992,2.1029,2.1082,2.1118,2.1169,2.1271,2.1278,2.1316,2.1328,2.1338,2.1348,2.14,2.1416,2.1241,2.1241,2.1241,0,0,2.0722,2.0751,2.0788,2.0861,2.089,2.0948,2.0899,2.0964,2.1006,2.0978,2.106,2.1078,2.1119,2.1212,2.1254,2.1231,2.1397,2.1348,2.1355,2.136,2.1409,2.1426,2.1441,2.1246,2.1245,2.1245,0,0,2.0838,2.0868,2.0941,2.097,2.1014,2.1023,2.104,2.1079,2.109,2.1171,2.1151,2.1201,2.1294,2.1323,2.135,2.1474,2.1455,2.1491,2.1553,2.1604,2.1618,2.163,2.1672,2.1687,2.15,2.1501,2.1501,0,2.0892,2.0981,2.0981,2.1047,2.1078,2.1055,2.1128,2.1156,2.1213,2.1235,2.1208,2.1322,2.1348,2.1446,2.1476,2.1499,2.1517,2.1486,2.1616,2.1628,2.1639,2.1679,2.1695,2.1504,2.1504,2.1504,2.1503,0,2.1043,2.1105,2.1159,2.1214,2.1252,2.1321,2.1329,2.1367,2.1361,2.1372,2.1453,2.1483,2.1539,2.1562,2.1557,2.1658,2.1642,2.1616,2.1567,2.166,2.1697,2.1713,2.151,2.1509,2.1507,2.1507,0,0,2.1196,2.1248,2.1268,2.1291,2.1336,2.1383,2.1449,2.1503,2.1535,2.1574,2.1629,2.1707,2.1681,2.1712,2.1709,2.1754,2.1847,2.1722,2.1722,2.1742,2.1957,2.1976,2.1994,2.1835,2.1838,2.184,2.1953,0,2.1314,2.1432,2.1432,2.154,2.1595,2.1572,2.1629,2.1662,2.1673,2.172,2.1732,2.1787,2.1751,2.1769,2.1812,2.1826,2.189,2.1818,2.1883,2.1886,2.1873,2.2014,2.2035,2.214,2.1968,2.1971,2.1972,0,2.1469,2.1513,2.1626,2.1659,2.1682,2.1734,2.1782,2.1828,2.1863,2.1868,2.1901,2.189,2.1955,2.1905,2.1993,2.1945,2.1971,2.1982,2.1986,2.1991,2.1934,2.2021,2.2174,2.219,2.1996,2.1994,2.1992,0,2.1566,2.1653,2.1731,2.1752,2.1794,2.183,2.1849,2.1881,2.1912,2.1954,2.1973,2.2022,2.2048,2.2085,2.2087,2.205,2.2175,2.2126,2.218,2.218,2.2207,2.2205,2.2365,2.2226,2.2226,2.2225,2.2225,0,2.1697,2.1767,2.1775,2.1823,2.1899,2.1897,2.1972,2.1988,2.2016,2.2065,2.2048,2.2094,2.2094,2.2141,2.2143,2.2214,2.2226,2.2231,2.223,2.2232,2.2231,2.2248,2.2241,2.223,2.2229,2.2228,2.2227,0,2.1819,2.1827,2.1911,2.1942,2.1952,2.2006,2.2032,2.2077,2.2086,2.2148,2.2162,2.2176,2.2229,2.2235,2.2297,2.2298,2.2384,2.2376,2.2372,2.237,2.2423,2.2418,2.2599,2.2622,2.247,2.2471,2.2472,0,2.1902,2.1955,2.1991,2.2023,2.2043,2.2095,2.2126,2.2125,2.2158,2.22,2.2239,2.2291,2.2332,2.2418,2.2433,2.248,2.2472,2.2532,2.2479,2.2478,2.2471,2.2467,2.2471,2.2542,2.2544,2.2545,2.2546,0,2.2048,2.2048,2.2095,2.2142,2.2179,2.2216,2.2251,2.2277,2.228,2.2318,2.2372,2.2404,2.2466,2.2517,2.2562,2.258,2.2563,2.2563,2.2578,2.2579,2.2574,2.2575,2.2399,2.2559,2.2558,2.2557,2.2556,2.2556,2.2151,2.2196,2.2228,2.2279,2.2304,2.2336,2.2378,2.2392,2.2437,2.2488,2.2484,2.2543,2.2574,2.2633,2.2654,2.2699,2.2678,2.27,2.2706,2.2711,2.2715,2.2567,2.2707,2.2707,2.2707,2.2706,2.2706,0,2.2294,2.2313,2.236,2.2408,2.2447,2.2428,2.2464,2.2498,2.255,2.258,2.2621,2.2681,2.2729,2.2747,2.2793,2.2826,2.2819,2.2838,2.2835,2.2839,2.2732,2.2713,2.2842,2.2842,2.2842,2.2842,2.2842,2.2842,2.2373,2.2447,2.2451,2.2535,2.2553,2.2611,2.2633,2.2661,2.2685,2.2753,2.2793,2.2804,2.2828,2.2875,2.2918,2.2922,2.2939,2.2961,2.2961,2.286,2.2847,2.2834,2.2816,2.2965,2.2965,2.3064,2.3065,2.3066]}]]